﻿_id,日時,平均風速(m/s),平均風向,最大瞬間風速(m/s),最大風速時風向,気温(℃),湿度(%),10分間移動積算雨量(mm),1時間移動積算雨量(mm),日雨量(mm),累計雨量(mm),日射(日積算)(MJ/m2),日照(日積算)(min),現地気圧(hPa),海面気圧(hPa)
1,2020-06-29T00:00:00,2,北北東,3.4,北北東,20,87.4,0,0,21.5,24,17.44,319,993.8,1007.3
2,2020-06-29T00:01:00,2,北北東,3.4,北北東,20,87.6,0,0,0,24,0,0,993.8,1007.3
3,2020-06-29T00:02:00,2,北北東,3.4,北北東,20,88,0,0,0,24,0,0,993.8,1007.3
4,2020-06-29T00:03:00,2,北北東,3.4,北北東,20.1,88.6,0,0,0,24,0,0,993.7,1007.2
5,2020-06-29T00:04:00,2.1,北北東,3.4,北北東,19.9,88,0,0,0,24,0,0,993.7,1007.2
6,2020-06-29T00:05:00,2.1,北北東,3.4,北北東,19.8,88.1,0,0,0,24,0,0,993.7,1007.2
7,2020-06-29T00:06:00,2.1,北北東,3.4,北北東,20,88.9,0,0,0,24,0,0,993.8,1007.3
8,2020-06-29T00:07:00,2,北北東,3.4,北北東,20,88.9,0,0,0,24,0,0,993.8,1007.3
9,2020-06-29T00:08:00,1.9,北北東,3.2,北北東,19.9,88.4,0,0,0,24,0,0,993.8,1007.3
10,2020-06-29T00:09:00,1.8,北北東,3.2,北北東,19.9,88.4,0,0,0,24,0,0,993.8,1007.3
11,2020-06-29T00:10:00,1.8,北北東,3.2,北北東,20,89.2,0,0,0,24,0,0,993.8,1007.3
12,2020-06-29T00:11:00,1.8,北北東,3.2,北北東,20.1,88.9,0,0,0,24,0,0,993.8,1007.3
13,2020-06-29T00:12:00,1.7,北北東,3,北北東,20,88.6,0,0,0,24,0,0,993.8,1007.3
14,2020-06-29T00:13:00,1.6,北北東,2.7,北北東,20,88.2,0,0,0,24,0,0,993.8,1007.3
15,2020-06-29T00:14:00,1.6,北北東,2.6,北北東,20.1,88.8,0,0,0,24,0,0,993.8,1007.3
16,2020-06-29T00:15:00,1.5,北北東,2.3,北北東,20,88.1,0,0,0,24,0,0,993.8,1007.3
17,2020-06-29T00:16:00,1.5,北北東,2.3,北北東,20,88.1,0,0,0,24,0,0,993.8,1007.3
18,2020-06-29T00:17:00,1.5,北北東,2.4,北東,20,88.2,0,0,0,24,0,0,993.8,1007.3
19,2020-06-29T00:18:00,1.6,北北東,2.4,北東,19.9,88.1,0,0,0,24,0,0,993.8,1007.3
20,2020-06-29T00:19:00,1.6,北北東,2.4,北東,19.8,88.1,0,0,0,24,0,0,993.8,1007.3
21,2020-06-29T00:20:00,1.6,北北東,2.6,北北東,19.9,88.7,0,0,0,24,0,0,993.8,1007.3
22,2020-06-29T00:21:00,1.5,北北東,2.6,北北東,19.8,88.7,0,0,0,24,0,0,993.8,1007.3
23,2020-06-29T00:22:00,1.5,北北東,2.6,北北東,19.9,89.2,0,0,0,24,0,0,993.8,1007.3
24,2020-06-29T00:23:00,1.4,北北東,2.6,北北東,19.8,88.8,0,0,0,24,0,0,993.8,1007.3
25,2020-06-29T00:24:00,1.4,北北東,2.6,北北東,19.7,88.7,0,0,0,24,0,0,993.8,1007.3
26,2020-06-29T00:25:00,1.2,北北東,2.6,北北東,19.7,88.6,0,0,0,24,0,0,993.8,1007.3
27,2020-06-29T00:26:00,1.1,北北東,2.6,北北東,19.6,89.3,0,0,0,24,0,0,993.8,1007.3
28,2020-06-29T00:27:00,1,北北東,2.6,北北東,19.6,89.4,0,0,0,24,0,0,993.9,1007.4
29,2020-06-29T00:28:00,1,北北東,2.6,北北東,19.7,89.9,0,0,0,24,0,0,993.9,1007.4
30,2020-06-29T00:29:00,0.9,北北東,2.6,北北東,19.6,90.1,0,0,0,24,0,0,993.9,1007.4
31,2020-06-29T00:30:00,0.8,北,2,北北東,19.6,89.7,0,0,0,24,0,0,993.9,1007.4
32,2020-06-29T00:31:00,0.8,北北東,2,北北東,19.7,90.5,0,0,0,24,0,0,993.9,1007.4
33,2020-06-29T00:32:00,0.7,北北東,1.7,北北東,19.8,90.6,0,0,0,24,0,0,993.9,1007.4
34,2020-06-29T00:33:00,0.7,北北東,1.7,北北東,19.9,90.4,0,0,0,24,0,0,993.9,1007.4
35,2020-06-29T00:34:00,0.7,北北東,1.5,北北東,19.7,89.5,0,0,0,24,0,0,993.9,1007.4
36,2020-06-29T00:35:00,0.7,北北東,1.5,北北東,19.7,89.7,0,0,0,24,0,0,993.9,1007.4
37,2020-06-29T00:36:00,0.7,北北東,1.7,北東,19.7,89.7,0,0,0,24,0,0,993.9,1007.4
38,2020-06-29T00:37:00,0.8,北北東,1.7,北東,19.8,89.7,0,0,0,24,0,0,993.9,1007.4
39,2020-06-29T00:38:00,0.8,北東,1.7,北東,19.8,89.9,0,0,0,24,0,0,993.9,1007.4
40,2020-06-29T00:39:00,0.8,北東,1.7,北東,19.8,89.4,0,0,0,24,0,0,993.9,1007.4
41,2020-06-29T00:40:00,0.7,北北東,1.7,北東,19.9,89.4,0,0,0,24,0,0,993.9,1007.4
42,2020-06-29T00:41:00,0.7,北北東,1.7,北東,19.7,89,0,0,0,24,0,0,993.9,1007.4
43,2020-06-29T00:42:00,0.7,北北東,1.7,北東,19.5,88.5,0,0,0,24,0,0,993.9,1007.4
44,2020-06-29T00:43:00,0.7,北北東,1.7,北東,19.4,89.1,0,0,0,24,0,0,993.9,1007.4
45,2020-06-29T00:44:00,0.8,北北東,1.7,北東,19.5,89.8,0,0,0,24,0,0,993.9,1007.4
46,2020-06-29T00:45:00,0.7,北北東,1.7,北東,19.5,90.5,0,0,0,24,0,0,993.9,1007.4
47,2020-06-29T00:46:00,0.7,北北東,1.5,北東,19.5,90.5,0,0,0,24,0,0,993.8,1007.3
48,2020-06-29T00:47:00,0.6,北北東,1.3,北北東,19.3,90.2,0,0,0,24,0,0,993.8,1007.3
49,2020-06-29T00:48:00,0.6,北北東,1.3,北北東,19.4,90.6,0,0,0,24,0,0,993.8,1007.3
50,2020-06-29T00:49:00,0.5,北北東,1.2,北東,19.5,91.1,0,0,0,24,0,0,993.8,1007.3
51,2020-06-29T00:50:00,0.5,北北東,1.2,北東,19.4,91.1,0,0,0,24,0,0,993.8,1007.3
52,2020-06-29T00:51:00,0.5,北北東,1.2,北東,19.4,91,0,0,0,24,0,0,993.8,1007.3
53,2020-06-29T00:52:00,0.5,北北東,1.2,北東,19.4,90.7,0,0,0,24,0,0,993.8,1007.3
54,2020-06-29T00:53:00,0.5,北北東,1,北東,19.4,91,0,0,0,24,0,0,993.8,1007.3
55,2020-06-29T00:54:00,0.4,北北東,0.9,北北東,19.2,90.7,0,0,0,24,0,0,993.8,1007.3
56,2020-06-29T00:55:00,0.4,北北東,0.9,北北東,19.5,91.4,0,0,0,24,0,0,993.8,1007.3
57,2020-06-29T00:56:00,0.4,北北東,0.9,北北東,19.5,91.7,0,0,0,24,0,0,993.8,1007.3
58,2020-06-29T00:57:00,0.3,北北東,0.9,北北東,19.4,90.9,0,0,0,24,0,0,993.8,1007.3
59,2020-06-29T00:58:00,0.3,北東,0.9,北北東,19.2,90.3,0,0,0,24,0,0,993.8,1007.3
60,2020-06-29T00:59:00,0.3,北東,0.9,北北東,19.2,90.9,0,0,0,24,0,0,993.8,1007.3
61,2020-06-29T01:00:00,0.3,北東,0.9,北北東,19.3,91.8,0,0,0,24,0,0,993.8,1007.3
62,2020-06-29T01:01:00,0.2,静穏,0.8,北東,19.2,91.5,0,0,0,24,0,0,993.8,1007.3
63,2020-06-29T01:02:00,0.2,静穏,0.8,北東,19.1,91.3,0,0,0,24,0,0,993.8,1007.3
64,2020-06-29T01:03:00,0.2,静穏,0.7,北北東,19.3,91.9,0,0,0,24,0,0,993.8,1007.3
65,2020-06-29T01:04:00,0.1,静穏,0.6,北北東,19.4,92.3,0,0,0,24,0,0,993.8,1007.3
66,2020-06-29T01:05:00,0.1,静穏,0.5,南西,19.1,91.7,0,0,0,24,0,0,993.8,1007.3
67,2020-06-29T01:06:00,0.1,静穏,0.5,南西,19.1,91.2,0,0,0,24,0,0,993.8,1007.3
68,2020-06-29T01:07:00,0.1,静穏,0.5,南西,19.1,91.8,0,0,0,24,0,0,993.8,1007.3
69,2020-06-29T01:08:00,0.1,静穏,0.5,南西,19.1,92,0,0,0,24,0,0,993.8,1007.3
70,2020-06-29T01:09:00,0.1,静穏,0.5,南西,19.1,92.1,0,0,0,24,0,0,993.8,1007.3
71,2020-06-29T01:10:00,0.2,静穏,0.9,東,19.1,92.4,0,0,0,24,0,0,993.8,1007.3
72,2020-06-29T01:11:00,0.2,静穏,1,東北東,19.2,92.6,0,0,0,24,0,0,993.8,1007.3
73,2020-06-29T01:12:00,0.3,南南東,1,東北東,19.4,93,0,0,0,24,0,0,993.8,1007.3
74,2020-06-29T01:13:00,0.3,東,1,東北東,19.4,92.2,0,0,0,24,0,0,993.8,1007.3
75,2020-06-29T01:14:00,0.3,東,1.1,東北東,19.3,91.5,0,0,0,24,0,0,993.8,1007.3
76,2020-06-29T01:15:00,0.4,東,1.1,東北東,19.2,91,0,0,0,24,0,0,993.7,1007.2
77,2020-06-29T01:16:00,0.4,東,1.1,東北東,19.1,91,0,0,0,24,0,0,993.7,1007.2
78,2020-06-29T01:17:00,0.4,東北東,1.1,東北東,19.1,91.3,0,0,0,24,0,0,993.7,1007.2
79,2020-06-29T01:18:00,0.5,東北東,1.1,東北東,19.1,91.7,0,0,0,24,0,0,993.7,1007.2
80,2020-06-29T01:19:00,0.5,東北東,1.1,東北東,19,91.4,0,0,0,24,0,0,993.7,1007.2
81,2020-06-29T01:20:00,0.5,北東,1.1,東北東,18.9,91.4,0,0,0,24,0,0,993.7,1007.2
82,2020-06-29T01:21:00,0.4,北東,1.1,東北東,18.9,92,0,0,0,24,0,0,993.7,1007.2
83,2020-06-29T01:22:00,0.3,北東,1.1,東北東,18.9,92.3,0,0,0,24,0,0,993.8,1007.3
84,2020-06-29T01:23:00,0.3,北東,1.1,東北東,19.1,92.6,0,0,0,24,0,0,993.8,1007.3
85,2020-06-29T01:24:00,0.3,北東,1.1,東,19.1,92.7,0,0,0,24,0,0,993.8,1007.3
86,2020-06-29T01:25:00,0.3,北北東,1.1,東,19.1,92.9,0,0,0,24,0,0,993.8,1007.3
87,2020-06-29T01:26:00,0.2,静穏,1.1,東,19.1,92.3,0,0,0,24,0,0,993.8,1007.3
88,2020-06-29T01:27:00,0.2,静穏,1.1,東,19.1,92.5,0,0,0,24,0,0,993.8,1007.3
89,2020-06-29T01:28:00,0.2,静穏,1.1,東,19.2,92.4,0,0,0,24,0,0,993.8,1007.3
90,2020-06-29T01:29:00,0.2,静穏,0.8,東,18.9,91.9,0,0,0,24,0,0,993.8,1007.3
91,2020-06-29T01:30:00,0.2,静穏,0.8,東,18.9,91.6,0,0,0,24,0,0,993.8,1007.3
92,2020-06-29T01:31:00,0.2,静穏,1.2,東北東,18.8,92,0,0,0,24,0,0,993.8,1007.4
93,2020-06-29T01:32:00,0.3,北北東,1.2,東北東,19,92.8,0,0,0,24,0,0,993.8,1007.3
94,2020-06-29T01:33:00,0.4,北東,1.6,北東,19.3,93.3,0,0,0,24,0,0,993.8,1007.3
95,2020-06-29T01:34:00,0.5,北東,1.6,北東,19.3,93,0,0,0,24,0,0,993.8,1007.3
96,2020-06-29T01:35:00,0.6,北東,1.6,北東,19.4,92.4,0,0,0,24,0,0,993.8,1007.3
97,2020-06-29T01:36:00,0.7,北東,1.8,北東,19.3,91.6,0,0,0,24,0,0,993.8,1007.3
98,2020-06-29T01:37:00,0.8,北東,1.8,北東,19.4,91.8,0,0,0,24,0,0,993.8,1007.3
99,2020-06-29T01:38:00,0.9,北東,1.8,北東,19.3,90.7,0,0,0,24,0,0,993.8,1007.3
100,2020-06-29T01:39:00,1,北東,1.8,北東,19.3,91,0,0,0,24,0,0,993.8,1007.3
101,2020-06-29T01:40:00,1.1,北東,1.8,北東,19.2,91,0,0,0,24,0,0,993.8,1007.3
102,2020-06-29T01:41:00,1.2,北東,1.8,北東,19.4,91.1,0,0,0,24,0,0,993.8,1007.3
103,2020-06-29T01:42:00,1.2,北東,1.8,北東,19.3,91.1,0,0,0,24,0,0,993.8,1007.3
104,2020-06-29T01:43:00,1.1,北東,1.8,北東,19.1,90.5,0,0,0,24,0,0,993.8,1007.3
105,2020-06-29T01:44:00,1,北東,1.8,北東,18.9,90,0,0,0,24,0,0,993.8,1007.3
106,2020-06-29T01:45:00,1,北東,1.8,北東,19,91.2,0,0,0,24,0,0,993.8,1007.3
107,2020-06-29T01:46:00,0.9,北東,1.8,北東,18.8,91.2,0,0,0,24,0,0,993.8,1007.4
108,2020-06-29T01:47:00,0.8,北東,1.8,北東,19,91.9,0,0,0,24,0,0,993.8,1007.3
109,2020-06-29T01:48:00,0.7,北東,1.8,北東,19,92.3,0,0,0,24,0,0,993.9,1007.4
110,2020-06-29T01:49:00,0.6,北北東,1.8,北東,18.9,92.3,0,0,0,24,0,0,993.9,1007.5
111,2020-06-29T01:50:00,0.5,北北東,1.5,北東,18.9,92.3,0,0,0,24,0,0,993.9,1007.5
112,2020-06-29T01:51:00,0.4,北北東,1.3,北東,18.8,92.3,0,0,0,24,0,0,993.9,1007.5
113,2020-06-29T01:52:00,0.4,北,0.9,北,19,92.9,0,0,0,24,0,0,993.9,1007.4
114,2020-06-29T01:53:00,0.3,北,0.9,北,19,92.9,0,0,0,24,0,0,993.9,1007.4
115,2020-06-29T01:54:00,0.3,北,0.9,北,18.9,92.8,0,0,0,24,0,0,993.9,1007.5
116,2020-06-29T01:55:00,0.3,北,0.8,北北東,18.9,92.4,0,0,0,24,0,0,993.9,1007.5
117,2020-06-29T01:56:00,0.4,北,1.1,北北東,18.9,92.7,0,0,0,24,0,0,994,1007.6
118,2020-06-29T01:57:00,0.4,北,1.1,北北東,19.1,93.2,0,0,0,24,0,0,994,1007.5
119,2020-06-29T01:58:00,0.5,北,1.5,北北東,18.9,92.6,0,0,0,24,0,0,994,1007.6
120,2020-06-29T01:59:00,0.6,北,1.5,北北東,19,92.1,0,0,0,24,0,0,993.9,1007.4
121,2020-06-29T02:00:00,0.6,北,1.5,北北東,18.9,92.2,0,0,0,24,0,0,993.9,1007.5
122,2020-06-29T02:01:00,0.7,北,1.5,北北東,19,92.5,0,0,0,24,0,0,994,1007.5
123,2020-06-29T02:02:00,0.8,北北東,1.6,北,19,92.3,0,0,0,24,0,0,993.9,1007.4
124,2020-06-29T02:03:00,0.9,北北東,1.6,北,19,92.3,0,0,0,24,0,0,994,1007.5
125,2020-06-29T02:04:00,1,北北東,1.6,北,19,92.1,0,0,0,24,0,0,994,1007.5
126,2020-06-29T02:05:00,1,北北東,1.6,北,19.3,92.3,0,0,0,24,0,0,994,1007.5
127,2020-06-29T02:06:00,1,北北東,1.6,北,19,91.5,0,0,0,24,0,0,994,1007.5
128,2020-06-29T02:07:00,1,北北東,1.6,北,19.1,91.4,0,0,0,24,0,0,994,1007.5
129,2020-06-29T02:08:00,1,北北東,1.6,北,18.9,91.1,0,0,0,24,0,0,994,1007.6
130,2020-06-29T02:09:00,0.9,北北東,1.6,北,18.9,91.4,0,0,0,24,0,0,994,1007.6
131,2020-06-29T02:10:00,0.7,北北東,1.6,北,18.8,91.7,0,0,0,24,0,0,994,1007.6
132,2020-06-29T02:11:00,0.7,北北東,1.6,北,18.7,91.7,0,0,0,24,0,0,994,1007.6
133,2020-06-29T02:12:00,0.6,北北東,1.6,北北東,18.9,92.2,0,0,0,24,0,0,994,1007.6
134,2020-06-29T02:13:00,0.5,北,1.5,北北東,18.8,92.5,0,0,0,24,0,0,993.9,1007.5
135,2020-06-29T02:14:00,0.4,北北東,1.5,北北東,18.9,92.7,0,0,0,24,0,0,993.9,1007.5
136,2020-06-29T02:15:00,0.3,北北東,1.2,北東,18.9,92.9,0,0,0,24,0,0,993.9,1007.5
137,2020-06-29T02:16:00,0.3,北北東,1.2,北東,18.9,92.7,0,0,0,24,0,0,993.9,1007.5
138,2020-06-29T02:17:00,0.2,静穏,0.8,北北東,18.8,92.6,0,0,0,24,0,0,993.9,1007.5
139,2020-06-29T02:18:00,0.2,静穏,0.7,東北東,19,93.1,0,0,0,24,0,0,994,1007.5
140,2020-06-29T02:19:00,0.2,静穏,0.7,東北東,18.9,92.8,0,0,0,24,0,0,994,1007.6
141,2020-06-29T02:20:00,0.2,静穏,0.7,東北東,18.8,92.2,0,0,0,24,0,0,994,1007.6
142,2020-06-29T02:21:00,0.3,北,0.8,西,18.8,92.3,0,0,0,24,0,0,994,1007.6
143,2020-06-29T02:22:00,0.3,北北西,0.8,西,18.7,92.5,0,0,0,24,0,0,994,1007.6
144,2020-06-29T02:23:00,0.4,北北西,0.8,西,18.8,92.5,0,0,0,24,0,0,994,1007.6
145,2020-06-29T02:24:00,0.4,北西,0.8,西,18.8,92.8,0,0,0,24,0,0,994,1007.6
146,2020-06-29T02:25:00,0.5,西北西,1.1,北北西,18.8,92.5,0,0,0,24,0,0,994,1007.6
147,2020-06-29T02:26:00,0.5,西北西,1.1,北北西,18.8,92.8,0,0,0,24,0,0,994,1007.6
148,2020-06-29T02:27:00,0.6,西北西,1.1,北北西,18.7,92.6,0,0,0,24,0,0,994,1007.6
149,2020-06-29T02:28:00,0.6,西北西,1.1,北北西,18.9,92.4,0,0,0,24,0,0,994,1007.6
150,2020-06-29T02:29:00,0.7,西北西,1.1,北北西,18.8,92.6,0,0,0,24,0,0,994,1007.6
151,2020-06-29T02:30:00,0.6,西北西,1.1,北北西,18.8,92.7,0,0,0,24,0,0,994,1007.6
152,2020-06-29T02:31:00,0.6,北西,1.1,北北西,18.7,92.5,0,0,0,24,0,0,994,1007.6
153,2020-06-29T02:32:00,0.6,北西,1.1,北北西,18.7,92.4,0,0,0,24,0,0,994,1007.6
154,2020-06-29T02:33:00,0.6,北西,1.1,北北西,18.7,92.8,0,0,0,24,0,0,994,1007.6
155,2020-06-29T02:34:00,0.6,北西,1.1,北北西,18.7,93,0,0,0,24,0,0,994,1007.6
156,2020-06-29T02:35:00,0.5,北西,1,北北西,18.7,92.7,0,0,0,24,0,0,994,1007.6
157,2020-06-29T02:36:00,0.5,北西,1,北北西,18.6,92.5,0,0,0,24,0,0,994,1007.6
158,2020-06-29T02:37:00,0.5,北西,0.9,北,18.6,93,0,0,0,24,0,0,994,1007.6
159,2020-06-29T02:38:00,0.5,西北西,0.9,西北西,18.6,92.9,0,0,0,24,0,0,994,1007.6
160,2020-06-29T02:39:00,0.5,西北西,0.9,西北西,18.7,93.2,0,0,0,24,0,0,994,1007.6
161,2020-06-29T02:40:00,0.5,西北西,0.9,西北西,18.6,93,0,0,0,24,0,0,994,1007.6
162,2020-06-29T02:41:00,0.5,西北西,0.9,西北西,18.6,93,0,0,0,24,0,0,994,1007.6
163,2020-06-29T02:42:00,0.5,西北西,0.9,西北西,18.5,93.1,0,0,0,24,0,0,994,1007.6
164,2020-06-29T02:43:00,0.6,西,0.9,西北西,18.6,93.5,0,0,0,24,0,0,994,1007.6
165,2020-06-29T02:44:00,0.6,西,0.9,西北西,18.6,93.7,0,0,0,24,0,0,994,1007.6
166,2020-06-29T02:45:00,0.6,西,1,西,18.5,92.9,0,0,0,24,0,0,994,1007.6
167,2020-06-29T02:46:00,0.7,西,1.1,西,18.5,93.2,0,0,0,24,0,0,994,1007.6
168,2020-06-29T02:47:00,0.7,西,1.2,西,18.5,92.9,0,0,0,24,0,0,994,1007.6
169,2020-06-29T02:48:00,0.7,西,1.2,西,18.5,93.1,0,0,0,24,0,0,994,1007.6
170,2020-06-29T02:49:00,0.8,西,1.2,西,18.6,93.5,0,0,0,24,0,0,994,1007.6
171,2020-06-29T02:50:00,0.8,西,1.2,西,18.5,93.3,0,0,0,24,0,0,994,1007.6
172,2020-06-29T02:51:00,0.8,西,1.2,西,18.5,93.2,0,0,0,24,0,0,994,1007.6
173,2020-06-29T02:52:00,0.8,西,1.2,西,18.5,93,0,0,0,24,0,0,994,1007.6
174,2020-06-29T02:53:00,0.8,西,1.2,西,18.5,93.3,0,0,0,24,0,0,994,1007.6
175,2020-06-29T02:54:00,0.8,西,1.2,西,18.5,93,0,0,0,24,0,0,994,1007.6
176,2020-06-29T02:55:00,0.8,西,1.2,西,18.4,92.8,0,0,0,24,0,0,994,1007.6
177,2020-06-29T02:56:00,0.7,西,1.2,西,18.5,93.2,0,0,0,24,0,0,994,1007.6
178,2020-06-29T02:57:00,0.7,西,1.1,西北西,18.4,93.2,0,0,0,24,0,0,994,1007.6
179,2020-06-29T02:58:00,0.6,西,1.1,西北西,18.4,93.1,0,0,0,24,0,0,994,1007.6
180,2020-06-29T02:59:00,0.5,西,1.1,西北西,18.3,93.1,0,0,0,24,0,0,994.1,1007.7
181,2020-06-29T03:00:00,0.5,西,1.1,西北西,18.4,93.6,0,0,0,24,0,0,994.1,1007.7
182,2020-06-29T03:01:00,0.5,西,1,西北西,18.4,93.6,0,0,0,24,0,0,994.1,1007.7
183,2020-06-29T03:02:00,0.5,西,1.2,西,18.4,93.6,0,0,0,24,0,0,994.1,1007.7
184,2020-06-29T03:03:00,0.6,西,1.3,西,18.6,93.9,0,0,0,24,0,0,994.1,1007.7
185,2020-06-29T03:04:00,0.6,西,1.3,西,18.5,93.3,0,0,0,24,0,0,994.1,1007.7
186,2020-06-29T03:05:00,0.7,西,1.3,西,18.6,93.5,0,0,0,24,0,0,994.1,1007.7
187,2020-06-29T03:06:00,0.8,西北西,1.3,西,18.7,93.5,0,0,0,24,0,0,994.1,1007.7
188,2020-06-29T03:07:00,0.8,西北西,1.4,西,18.7,93.1,0,0,0,24,0,0,994.1,1007.7
189,2020-06-29T03:08:00,0.9,西北西,1.4,西,18.7,92.8,0,0,0,24,0,0,994.2,1007.8
190,2020-06-29T03:09:00,1,西北西,1.4,西,18.6,92.3,0,0,0,24,0,0,994.2,1007.8
191,2020-06-29T03:10:00,1.1,西,1.5,西,18.5,92,0,0,0,24,0,0,994.2,1007.8
192,2020-06-29T03:11:00,1.2,西,1.8,西,18.4,91.7,0,0,0,24,0,0,994.2,1007.8
193,2020-06-29T03:12:00,1.2,西,1.9,西,18,91.2,0,0,0,24,0,0,994.2,1007.8
194,2020-06-29T03:13:00,1.3,西,1.9,西,17.9,91.4,0,0,0,24,0,0,994.2,1007.8
195,2020-06-29T03:14:00,1.3,西,1.9,西,17.8,92.2,0,0,0,24,0,0,994.2,1007.8
196,2020-06-29T03:15:00,1.3,西,1.9,西,17.8,92.9,0,0,0,24,0,0,994.2,1007.8
197,2020-06-29T03:16:00,1.3,西,1.9,西,17.8,93.8,0,0,0,24,0,0,994.2,1007.8
198,2020-06-29T03:17:00,1.2,西,1.9,西,17.8,94.3,0,0,0,24,0,0,994.2,1007.8
199,2020-06-29T03:18:00,1.1,西,1.9,西,17.8,94.9,0,0,0,24,0,0,994.2,1007.8
200,2020-06-29T03:19:00,1.1,西,1.9,西,17.8,95,0,0,0,24,0,0,994.2,1007.8
201,2020-06-29T03:20:00,1,西,1.9,西,17.8,95.3,0,0,0,24,0,0,994.2,1007.8
202,2020-06-29T03:21:00,0.9,西南西,1.9,西,17.8,95.1,0,0,0,24,0,0,994.3,1007.9
203,2020-06-29T03:22:00,0.8,西南西,1.9,西,17.8,95.4,0,0,0,24,0,0,994.3,1007.9
204,2020-06-29T03:23:00,0.8,西南西,1.9,西,17.9,95.5,0,0,0,24,0,0,994.3,1007.9
205,2020-06-29T03:24:00,0.8,西南西,1.9,西,18,95.7,0,0,0,24,0,0,994.3,1007.9
206,2020-06-29T03:25:00,0.8,西南西,1.7,西,18,95.6,0,0,0,24,0,0,994.3,1007.9
207,2020-06-29T03:26:00,0.9,西,1.7,西,18,95.2,0,0,0,24,0,0,994.3,1007.9
208,2020-06-29T03:27:00,0.9,西,1.7,西,18.1,95.2,0,0,0,24,0,0,994.3,1007.9
209,2020-06-29T03:28:00,1,西,1.7,西,17.8,94.3,0,0,0,24,0,0,994.3,1007.9
210,2020-06-29T03:29:00,1,西,1.7,西,17.8,94.1,0,0,0,24,0,0,994.3,1007.9
211,2020-06-29T03:30:00,1,西,1.7,西,17.9,94.7,0,0,0,24,0,0,994.3,1007.9
212,2020-06-29T03:31:00,1.1,西,1.7,西,17.9,94.9,0,0,0,24,0,0,994.3,1007.9
213,2020-06-29T03:32:00,1.1,西,1.7,西,17.9,94.4,0,0,0,24,0,0,994.3,1007.9
214,2020-06-29T03:33:00,1.2,西,1.7,西,18.2,95.2,0,0,0,24,0,0,994.3,1007.9
215,2020-06-29T03:34:00,1.2,西,1.7,西,18.3,95.4,0,0,0,24,0,0,994.3,1007.9
216,2020-06-29T03:35:00,1.1,西,1.7,西,18.3,94.7,0,0,0,24,0,0,994.3,1007.9
217,2020-06-29T03:36:00,1.1,西,1.6,西北西,18.2,93.6,0,0,0,24,0,0,994.3,1007.9
218,2020-06-29T03:37:00,1.2,西,1.7,西,18.2,93,0,0,0,24,0,0,994.3,1007.9
219,2020-06-29T03:38:00,1.2,西,1.7,西,18.3,93.1,0,0,0,24,0,0,994.3,1007.9
220,2020-06-29T03:39:00,1.3,西,1.7,西,18.4,93.3,0,0,0,24,0,0,994.3,1007.9
221,2020-06-29T03:40:00,1.3,西北西,1.7,西,18.3,92.7,0,0,0,24,0,0,994.3,1007.9
222,2020-06-29T03:41:00,1.3,西北西,1.7,西,18.4,92.3,0,0,0,24,0,0,994.3,1007.9
223,2020-06-29T03:42:00,1.3,西北西,1.7,西,18.3,91.9,0,0,0,24,0,0,994.3,1007.9
224,2020-06-29T03:43:00,1.3,西北西,1.7,西,18.3,91.9,0,0,0,24,0,0,994.4,1008
225,2020-06-29T03:44:00,1.3,西北西,1.7,西,18.3,92,0,0,0,24,0,0,994.4,1008
226,2020-06-29T03:45:00,1.2,西,1.7,西,18.2,92.1,0,0,0,24,0,0,994.4,1008
227,2020-06-29T03:46:00,1.2,西,1.7,西,18.1,91.5,0,0,0,24,0,0,994.4,1008
228,2020-06-29T03:47:00,1.2,西,1.7,西,18.1,92.3,0,0,0,24,0,0,994.5,1008.1
229,2020-06-29T03:48:00,1.2,西,1.7,西,18,92,0,0,0,24,0,0,994.5,1008.1
230,2020-06-29T03:49:00,1.2,西,1.7,西,17.9,92.1,0,0,0,24,0,0,994.5,1008.1
231,2020-06-29T03:50:00,1.2,西,1.6,西,18,92.7,0,0,0,24,0,0,994.6,1008.2
232,2020-06-29T03:51:00,1.2,西,1.6,西,18,93.2,0,0,0,24,0,0,994.6,1008.2
233,2020-06-29T03:52:00,1.2,西,1.6,西,18,93,0,0,0,24,0,0,994.6,1008.2
234,2020-06-29T03:53:00,1.3,西,1.6,西,18.2,93.9,0,0,0,24,0,0,994.6,1008.2
235,2020-06-29T03:54:00,1.3,西,1.6,西,17.9,92.9,0,0,0,24,0,0,994.7,1008.3
236,2020-06-29T03:55:00,1.3,西,1.6,西,18,92.9,0,0,0,24,0,0,994.7,1008.3
237,2020-06-29T03:56:00,1.3,西,1.6,西,18.1,93.7,0,0,0,24,0,0,994.7,1008.3
238,2020-06-29T03:57:00,1.3,西,1.5,西北西,18,93.4,0,0,0,24,0,0,994.7,1008.3
239,2020-06-29T03:58:00,1.2,西,1.5,西北西,18,93.5,0,0,0,24,0,0,994.8,1008.4
240,2020-06-29T03:59:00,1.2,西,1.5,西北西,18,93.7,0,0,0,24,0,0,994.8,1008.4
241,2020-06-29T04:00:00,1.2,西,1.5,西北西,18,93.6,0,0,0,24,0,0,994.8,1008.4
242,2020-06-29T04:01:00,1.1,西,1.5,西北西,18,93.8,0,0,0,24,0,0,994.8,1008.4
243,2020-06-29T04:02:00,1.1,西,1.5,西北西,18,93.6,0,0,0,24,0,0,994.8,1008.4
244,2020-06-29T04:03:00,1.1,西,1.5,西北西,18,93.7,0,0,0,24,0,0,994.8,1008.4
245,2020-06-29T04:04:00,1,西,1.5,西北西,18.1,93.9,0,0,0,24,0,0,994.8,1008.4
246,2020-06-29T04:05:00,1,西,1.3,西,17.9,93.5,0,0,0,24,0,0,994.8,1008.4
247,2020-06-29T04:06:00,0.9,西,1.2,西北西,17.9,93.4,0,0,0,24,0,0,994.8,1008.4
248,2020-06-29T04:07:00,0.9,西,1.1,西北西,17.8,93.3,0,0,0,24,0,0,994.8,1008.4
249,2020-06-29T04:08:00,0.8,西,1.1,西北西,17.8,93.6,0,0,0,24,0,0,994.8,1008.4
250,2020-06-29T04:09:00,0.8,西,1.1,西北西,17.8,93.8,0,0,0,24,0,0,994.8,1008.4
251,2020-06-29T04:10:00,0.9,西,1.4,西,17.9,94.2,0,0,0,24,0,0,994.8,1008.4
252,2020-06-29T04:11:00,0.9,西,1.5,西,18,94.8,0,0,0,24,0,0,994.8,1008.4
253,2020-06-29T04:12:00,1,西,1.6,西,17.9,94.2,0,0,0,24,0,0,994.8,1008.4
254,2020-06-29T04:13:00,1,西,1.6,西,17.8,93.8,0,0,0,24,0,0,994.8,1008.4
255,2020-06-29T04:14:00,1,西,1.6,西,17.8,93.8,0,0,0,24,0,0,994.8,1008.4
256,2020-06-29T04:15:00,1,西,1.6,西,17.9,94.1,0,0,0,24,0,0,994.8,1008.4
257,2020-06-29T04:16:00,1.1,西,1.6,西,18,94.5,0,0,0,24,0,0,994.9,1008.5
258,2020-06-29T04:17:00,1.1,西,1.6,西,18,94.5,0,0,0,24,0,0,994.9,1008.5
259,2020-06-29T04:18:00,1.1,西,1.6,西,18.1,94.3,0,0,0,24,0,0,994.9,1008.5
260,2020-06-29T04:19:00,1.1,西北西,1.6,西,18.1,93.9,0,0,0,24,0,0,994.9,1008.5
261,2020-06-29T04:20:00,1.1,西北西,1.6,西,18.1,93.8,0,0,0,24,0,0,994.9,1008.5
262,2020-06-29T04:21:00,1,西北西,1.6,西,18.1,93.6,0,0,0,24,0,0,994.8,1008.4
263,2020-06-29T04:22:00,0.9,西北西,1.5,西北西,18,92.8,0,0,0,24,0,0,994.8,1008.4
264,2020-06-29T04:23:00,0.8,西北西,1.5,西北西,17.8,92.6,0,0,0,24,0,0,994.9,1008.5
265,2020-06-29T04:24:00,0.7,西北西,1.5,西北西,17.9,93.1,0,0,0,24,0,0,994.9,1008.5
266,2020-06-29T04:25:00,0.6,西北西,1.5,西北西,17.8,93.3,0,0,0,24,0,0,994.9,1008.5
267,2020-06-29T04:26:00,0.6,西北西,1.5,西北西,17.9,93.7,0,0,0,24,0,0,994.9,1008.5
268,2020-06-29T04:27:00,0.5,西北西,1.3,西北西,17.6,93.3,0,0,0,24,0,0,994.9,1008.5
269,2020-06-29T04:28:00,0.4,西北西,1.1,西北西,17.7,93.5,0,0,0,24,0,0,995,1008.6
270,2020-06-29T04:29:00,0.4,西北西,1.1,西北西,17.7,94.1,0,0,0,24,0,0,995,1008.6
271,2020-06-29T04:30:00,0.3,西,1.1,西北西,17.7,94.4,0,0,0,24,0,0,995,1008.6
272,2020-06-29T04:31:00,0.3,西,1.1,西北西,17.5,94.1,0,0,0,24,0,0,995,1008.6
273,2020-06-29T04:32:00,0.3,西南西,1.2,西,17.7,94.5,0,0,0,24,0,0,995,1008.6
274,2020-06-29T04:33:00,0.3,西南西,1.2,西,17.8,95.3,0,0,0,24,0,0,995,1008.6
275,2020-06-29T04:34:00,0.4,西南西,1.2,西,17.7,95,0,0,0,24,0,0,995,1008.6
276,2020-06-29T04:35:00,0.4,西南西,1.2,西,17.7,94.8,0,0,0,24,0,0,995,1008.6
277,2020-06-29T04:36:00,0.4,西南西,1.2,西,17.7,94.8,0,0,0,24,0,0,995,1008.6
278,2020-06-29T04:37:00,0.4,西南西,1.2,西,17.7,94.9,0,0,0,24,0,0,995,1008.6
279,2020-06-29T04:38:00,0.5,西,1.2,西,17.9,95.1,0,0,0,24,0,0,995,1008.6
280,2020-06-29T04:39:00,0.4,西,1.2,西,17.9,94.8,0,0,0,24,0,0,995,1008.6
281,2020-06-29T04:40:00,0.4,西,1.2,西,17.9,94.8,0,0,0,24,0,0,995,1008.6
282,2020-06-29T04:41:00,0.4,西,1.2,西,17.9,94.3,0,0,0,24,0,0,995,1008.6
283,2020-06-29T04:42:00,0.4,西,1,西,17.8,93.9,0,0,0,24,0,0,995,1008.6
284,2020-06-29T04:43:00,0.3,西,0.8,西南西,17.7,93.8,0,0,0,24,0,0,995,1008.6
285,2020-06-29T04:44:00,0.3,西,0.8,西南西,17.9,93.9,0,0,0,24,0,0,995,1008.6
286,2020-06-29T04:45:00,0.3,西南西,0.8,西南西,17.9,94.2,0,0,0,24,0,0,995.1,1008.7
287,2020-06-29T04:46:00,0.2,静穏,0.8,西南西,17.8,93.7,0,0,0,24,0,0,995.1,1008.7
288,2020-06-29T04:47:00,0.1,静穏,0.8,西南西,17.8,93.6,0,0,0,24,0,0,995.1,1008.7
289,2020-06-29T04:48:00,0.2,静穏,0.8,西南西,18,94.3,0,0,0,24,0,0,995.1,1008.7
290,2020-06-29T04:49:00,0.2,静穏,0.8,西南西,18,94.3,0,0,0,24,0,0,995.1,1008.7
291,2020-06-29T04:50:00,0.2,静穏,0.9,西北西,17.8,93.8,0,0,0,24,0,0,995.1,1008.7
292,2020-06-29T04:51:00,0.3,南西,0.9,西北西,17.7,93.4,0,0,0,24,0,0,995.1,1008.7
293,2020-06-29T04:52:00,0.3,南西,1,西,17.7,93.5,0,0,0,24,0,0,995.1,1008.7
294,2020-06-29T04:53:00,0.3,西南西,1,西,17.7,94,0,0,0,24,0,0,995.1,1008.7
295,2020-06-29T04:54:00,0.4,西南西,1,西,17.5,93.8,0,0,0,24,0,0,995.1,1008.7
296,2020-06-29T04:55:00,0.4,西南西,1.1,西,17.6,94.6,0,0,0,24,0,0,995.1,1008.7
297,2020-06-29T04:56:00,0.5,西南西,1.1,西,17.6,94.8,0,0,0,24,0,0,995.1,1008.7
298,2020-06-29T04:57:00,0.6,西南西,1.1,西,17.7,94.8,0,0,0,24,0,0,995.1,1008.7
299,2020-06-29T04:58:00,0.6,西,1.1,西,17.8,95.3,0,0,0,24,0,0,995.1,1008.7
300,2020-06-29T04:59:00,0.6,西,1.1,西,17.8,95,0,0,0,24,0,0,995.1,1008.7
301,2020-06-29T05:00:00,0.6,西,1.6,西,17.6,94.8,0,0,0,24,0.01,0,995.1,1008.7
302,2020-06-29T05:01:00,0.8,西,1.7,西,17.5,94.5,0,0,0,24,0.01,0,995.1,1008.7
303,2020-06-29T05:02:00,0.8,西,1.7,西,17.5,94.4,0,0,0,24,0.01,0,995.1,1008.7
304,2020-06-29T05:03:00,0.9,西,1.7,西,17.7,95.2,0,0,0,24,0.01,0,995.1,1008.7
305,2020-06-29T05:04:00,0.9,西,1.7,西,17.7,94.8,0,0,0,24,0.01,0,995.1,1008.7
306,2020-06-29T05:05:00,0.9,西,1.7,西,17.8,95,0,0,0,24,0.01,0,995.1,1008.7
307,2020-06-29T05:06:00,1,西,1.7,西,17.7,94.6,0,0,0,24,0.01,0,995.1,1008.7
308,2020-06-29T05:07:00,1,西,1.7,西,17.5,93.7,0,0,0,24,0.01,0,995.1,1008.7
309,2020-06-29T05:08:00,1,西,1.7,西,17.7,94.1,0,0,0,24,0.01,0,995.1,1008.7
310,2020-06-29T05:09:00,1,西,1.7,西,17.7,94.6,0,0,0,24,0.01,0,995.1,1008.7
311,2020-06-29T05:10:00,1,西,1.7,西,17.6,94,0,0,0,24,0.02,0,995.2,1008.8
312,2020-06-29T05:11:00,0.9,西,1.6,西,17.6,93.7,0,0,0,24,0.02,0,995.2,1008.8
313,2020-06-29T05:12:00,0.9,西,1.2,西南西,17.7,94,0,0,0,24,0.02,0,995.2,1008.8
314,2020-06-29T05:13:00,0.8,西,1.2,西南西,17.8,94.6,0,0,0,24,0.02,0,995.2,1008.8
315,2020-06-29T05:14:00,0.8,西,1.2,西南西,17.8,94,0,0,0,24,0.02,0,995.2,1008.8
316,2020-06-29T05:15:00,0.7,西,1.2,西南西,17.7,93.8,0,0,0,24,0.02,0,995.2,1008.8
317,2020-06-29T05:16:00,0.7,西,1.1,西南西,17.7,93.6,0,0,0,24,0.02,0,995.2,1008.8
318,2020-06-29T05:17:00,0.7,西,1,西,17.7,93.5,0,0,0,24,0.03,0,995.2,1008.8
319,2020-06-29T05:18:00,0.6,西北西,1,西,17.8,93.7,0,0,0,24,0.03,0,995.3,1008.9
320,2020-06-29T05:19:00,0.6,西北西,1,西,17.7,93.5,0,0,0,24,0.03,0,995.3,1008.9
321,2020-06-29T05:20:00,0.6,西北西,0.8,西北西,17.8,93.6,0,0,0,24,0.03,0,995.3,1008.9
322,2020-06-29T05:21:00,0.6,西北西,1,西北西,17.8,93.5,0,0,0,24,0.03,0,995.3,1008.9
323,2020-06-29T05:22:00,0.6,西北西,1,西北西,17.8,93.6,0,0,0,24,0.03,0,995.3,1008.9
324,2020-06-29T05:23:00,0.6,西北西,1,西北西,17.8,93.4,0,0,0,24,0.04,0,995.3,1008.9
325,2020-06-29T05:24:00,0.6,西北西,1,西北西,17.7,93.3,0,0,0,24,0.04,0,995.3,1008.9
326,2020-06-29T05:25:00,0.6,西北西,1,西北西,17.8,93.4,0,0,0,24,0.04,0,995.3,1008.9
327,2020-06-29T05:26:00,0.7,西北西,1,西北西,17.9,93.7,0,0,0,24,0.04,0,995.3,1008.9
328,2020-06-29T05:27:00,0.7,西北西,1,西北西,17.9,93.7,0,0,0,24,0.05,0,995.3,1008.9